Location: Northam
(31.6525°S, 116.6655°E)
Time: 19:19:29
(UTC+08:00)

AAUSAT CUBESAT 2 - Pass Details

Date: 31 July 2021
Orbit: 572 x 587 km, 97.5° (Epoch: 18 September)

Event Time Altitude Azimuth Distance (km) Brightness Sun altitude
Rises 18:26:34 0° 189° (S) 2,850 ? -10.8°
Reaches altitude 10° 18:29:19 10° 208° (SSW) 1,939 ? -11.4°
Maximum altitude 18:32:08 18° 250° (WSW) 1,490 ? -12.0°
Drops below altitude 10° 18:34:56 10° 292° (WNW) 1,920 ? -12.5°
Sets 18:37:39 0° 312° (NW) 2,809 ? -13.1°
